Location: Esp�n
(42.4593°N, 0.2047°W)
Time: 23:04:20
(UTC+00:00)

STARLINK-1305 - Pass Details

Date: 07 June 2020
Orbit: 549 x 550 km, 53.0° (Epoch: 05 July)

Event Time Altitude Azimuth Distance (km) Brightness Sun altitude
Exits shadow 02:34:37 19° 263° (W) 1,341 5.2 -15.6°
Maximum altitude 02:37:18 47° 331° (NNW) 737 4.4 -15.3°
Drops below altitude 10° 02:41:19 10° 45° (NE) 1,825 7.7 -14.9°
Sets 02:43:37 0° 52° (NE) 2,721 8.8 -14.6°
